Location: ??????
(41.4460°N, 22.6094°E)
Time: 17:40:58
(UTC+00:00)

Daily predictions for brighter satellites

Satellite Brightness Start Highest point End
(mag) Time Altitude Azimuth Time Altitude Azimuth Time Altitude Azimuth
ATLAS 2AS CENTAUR R/B 3.9 18:06:36 10° NNW 18:13:09 32° NE 18:19:14 10° E
Cosmos 1151 Rocket 3.0 18:09:54 10° S 18:14:14 75° E 18:18:38 10° NNE
Ariane Rocket 3.4 18:11:22 10° SE 18:16:12 48° ENE 18:21:05 10° N
Cosmos 1666 Rocket 3.5 18:12:03 10° N 18:16:26 83° E 18:20:45 10° S
Cosmos 1933 4.4 18:12:39 10° SSW 18:16:33 50° W 18:20:28 10° N
Cosmos 1943 Rocket 3.8 18:14:33 10° SE 18:17:15 14° E 18:19:58 10° ENE
MetOp-A 4.4 18:12:36 10° S 18:17:57 77° WSW 18:23:20 10° NNW
CZ-4 R/B 4.2 18:16:51 10° SW 18:19:19 16° W 18:21:45 10° NW
SJ-6B 2.8 18:15:37 10° SSE 18:19:34 82° ENE 18:23:38 10° N
Tianhe-1 1.0 18:16:46 10° WSW 18:19:51 67° SSE 18:22:59 10° E
Cosmos 2082 Rocket 3.0 18:15:20 10° N 18:20:33 37° ENE 18:25:45 10° SE
deb Kosmos-1763 4.3 18:18:57 10° N 18:22:25 50° ENE 18:25:51 10° SE
USA 308 2.9 18:19:16 10° NW 18:23:34 88° SW 18:27:52 10° SE
Helios 1A Rocket 4.1 18:25:16 10° S 18:29:13 44° W 18:33:12 10° NNW
Resurs 1-3 3.7 18:28:10 10° SSE 18:32:29 61° ENE 18:36:49 10° N
ATLAS 5 CENTAUR R/B 4.3 18:29:32 10° WNW 18:34:28 27° WSW 18:39:59 10° SSW
BREEZE-M DEB (TANK) 3.9 18:33:20 10° NW 18:34:42 14° N 18:35:56 10° NE
MOS 1-B Rocket 4.3 18:34:24 10° NNE 18:41:15 78° WNW 18:47:09 10° SSW
Cosmos 2278 Rocket 2.8 18:36:54 10° SW 18:42:30 63° WNW 18:48:08 10° NNE
GPS 2-04 Rocket1 4.2 18:39:27 10° WSW 18:42:49 24° SSW 18:45:33 13° SSE
ARIANE 5 R/B 4.5 18:41:20 10° E 18:43:56 16° ENE 18:46:34 10° NNE
Cosmos 1271 Rocket 3.1 18:42:10 10° S 18:46:01 47° E 18:49:52 10° NNE
Cosmos 2369 Rocket 3.9 18:44:54 11° ESE 18:46:03 12° E 18:48:09 10° ENE
Meteor 1-10 Rocket 4.4 18:42:14 10° S 18:47:38 53° E 18:53:10 10° NNE
MOS 1 4.4 18:42:24 10° SSE 18:48:04 83° WSW 18:53:48 10° NNW
COSMOS 2406 3.5 18:42:53 10° NNW 18:48:32 69° WSW 18:54:10 10° SSE
Cosmos 1461 3.9 18:44:30 10° S 18:48:36 30° ESE 18:52:40 10° NE
USA 267 3.6 18:46:01 11° SSE 18:52:19 59° SW 18:58:47 10° NW
Cosmos 1709 Rocket 4.4 18:46:41 10° NNW 18:52:42 62° W 18:58:43 10° S
Landsat 7 4.2 18:49:17 14° SE 18:53:08 47° ENE 18:57:42 10° N
Cosmos 1666 2.7 18:54:01 10° N 18:57:43 61° E 19:00:26 17° SSE
USA 186 4.4 18:57:57 10° WSW 18:58:17 10° W 18:58:38 10° W
USA 305 3.8 18:55:59 10° WNW 18:59:58 40° SW 19:03:02 16° SSE
OAO 3 Rocket 3.7 18:56:04 10° WSW 19:00:22 38° S 19:03:06 19° ESE
Cosmos 1536 4.0 18:59:17 10° NNE 19:02:43 26° ENE 19:04:24 20° ESE
Cosmos 2074 Rocket 4.1 18:58:17 10° N 19:04:32 62° E 19:09:42 15° SSE
ERBS 4.1 19:02:52 10° NNW 19:05:35 23° NE 19:07:36 14° E
Cosmos 2184 Rocket 4.0 19:01:52 10° N 19:08:00 63° E 19:12:52 17° SSE
CZ-2C R/B 2.2 19:04:46 10° SW 19:08:03 24° SSE 19:08:48 23° SSE
Cosmos 1812 3.6 19:04:53 10° SSW 19:08:37 50° W 19:12:24 10° N
SWARM C 4.4 19:05:20 10° N 19:08:39 89° E 19:11:03 17° S
SWARM A 4.2 19:05:26 10° N 19:08:46 87° W 19:11:14 17° S
Cosmos 1833 Rocket 3.6 19:04:00 10° NW 19:09:23 45° WSW 19:14:42 10° S
CZ-4C R/B 3.9 19:02:33 10° NW 19:09:44 46° WSW 19:17:44 10° S
OBJECT-B 3.5 19:08:38 10° SW 19:10:52 17° W 19:13:07 10° NW
Meteor 2-6 Rocket 4.4 19:05:42 10° SSW 19:11:07 74° W 19:16:44 10° N
ERS-1 Rocket 4.3 19:09:06 17° ESE 19:11:39 25° ENE 19:15:41 10° NNE
Cosmos 967 Rocket 4.4 19:08:06 10° SSW 19:14:18 71° ESE 19:20:34 10° NE
Cosmos 1515 Rocket 4.4 19:11:05 10° SSW 19:15:21 52° W 19:19:38 10° N
Cosmos 2112 Rocket 4.4 19:13:57 10° N 19:19:11 50° ENE 19:22:07 24° SE
USA 306 4.4 19:16:03 10° WNW 19:19:41 27° SW 19:22:06 17° S
ISS -1.5 19:19:19 10° W 19:22:15 27° NNW 19:25:12 10° NE
Cosmos 1937 Rocket 3.7 19:18:54 16° S 19:22:45 48° ESE 19:27:44 10° NNE
Spot 2 Rocket 3.9 19:20:28 24° SE 19:23:09 47° ENE 19:27:58 10° N
Cosmos 1869 Rocket 3.7 19:20:39 10° N 19:24:56 56° E 19:26:54 29° SE
Cosmos 2228 Rocket 3.0 19:24:37 15° S 19:28:18 87° E 19:32:48 10° N
SPOT 1/Viking Rocket 3.5 19:25:15 24° SSE 19:28:26 72° ENE 19:33:36 10° N
Cosmos 44 3.5 19:23:33 10° NNW 19:28:58 77° NE 19:31:42 29° SE
Meteor 2-12 Rocket 4.4 19:25:29 10° N 19:31:33 75° E 19:35:24 24° SSE
MetOp-B 4.1 19:29:24 21° S 19:33:05 83° WSW 19:38:29 10° NNW
Meteor 1-27 Rocket 3.8 19:28:19 12° S 19:33:49 81° E 19:39:46 10° NNE
Resurs 01 Rocket 2.4 19:30:44 16° S 19:34:09 49° W 19:38:28 10° NNW
Cosmos 1743 3.6 19:31:51 10° NNE 19:35:22 32° ENE 19:35:58 30° E
IGS 5A 4.2 19:34:48 18° SSW 19:37:37 48° W 19:41:39 10° NNW
Cosmos 2084 Rocket 3.5 19:33:55 10° NNW 19:38:14 69° NE 19:39:54 37° SE
Cosmos 1707 Rocket 3.9 19:37:39 36° SE 19:38:53 46° E 19:43:07 10° NNE
CARTOSAT-1 3.7 19:38:27 36° SE 19:39:56 56° ENE 19:44:11 10° N
Cosmos 858 Rocket 4.4 19:37:41 17° S 19:41:39 70° ESE 19:46:52 10° NNE
DNEPR-1 R/B 4.3 19:36:23 10° SW 19:42:35 77° WNW 19:47:41 10° NNE
Cosmos 1680 Rocket 3.5 19:38:42 10° NNW 19:44:03 86° WSW 19:46:39 31° SSE
Cosmos 1867 3.9 19:43:24 31° SSE 19:45:13 41° ESE 19:50:19 10° NE
SPOT 3 Rocket 4.3 19:41:44 17° S 19:45:34 49° W 19:50:34 10° NNW
SJ 16-02 4.2 19:46:12 10° WSW 19:49:19 19° WNW 19:52:27 10° NNW
Cosmos 2297 3.9 19:43:54 10° SSW 19:49:35 73° WNW 19:55:17 10° NNE
Iridium 4 Rocket 4.3 19:45:06 11° SSW 19:50:36 61° W 19:56:27 10° N
Tianhe-1 1.1 19:53:16 10° W 19:56:10 74° W 19:56:10 74° W
Cosmos 372 Rocket 4.0 19:56:48 40° SSE 19:58:20 56° ESE 20:03:20 10° NNE
Cosmos 1943 Rocket 2.2 19:54:37 10° SSW 20:00:15 79° WNW 20:05:52 10° NNE
Terra 2.3 19:59:45 39° ESE 20:00:52 47° ENE 20:05:27 10° N
Gbstr 26 Del rocket 4.2 19:55:08 10° NW 20:02:50 83° NE 20:05:58 34° ESE
Cosmos 2082 Rocket 3.5 19:59:36 10° NW 20:04:30 31° WSW 20:07:52 17° SSW
ATLAS 2AS CENTAUR R/B 2.9 19:57:28 10° NW 20:04:37 64° WSW 20:07:46 33° S
Cosmos 1515 3.6 20:04:45 66° E 20:04:46 66° E 20:08:33 10° NNE
Cosmos 1656 Rocket 4.2 20:05:34 37° ESE 20:05:48 37° ESE 20:10:49 10° NE
Cosmos 1733 Rocket 3.2 20:03:28 10° N 20:07:42 52° E 20:08:05 50° E
Cosmos 2341 Rocket 4.1 20:01:31 10° N 20:07:53 65° E 20:10:15 39° SSE
Cosmos 1544 3.2 20:05:22 10° NNW 20:08:58 63° W 20:09:21 58° SW
Cosmos 1340 Rocket 3.0 20:07:50 10° NNW 20:11:52 65° W 20:12:35 52° SSW
Okean 1 3.2 20:13:39 71° E 20:13:41 71° E 20:17:38 10° NNE
ARIANE 5 R/B 3.2 20:18:52 38° SW 20:19:59 48° W 20:24:12 10° NNW
SL-8 Rocket 4.1 20:13:56 10° N 20:20:14 63° E 20:22:07 44° SE
Cosmos 2298 Rocket 4.5 20:22:28 41° E 20:22:28 41° E 20:27:20 10° NNE
SL-24 DEB 4.5 20:28:12 49° SW 20:29:12 62° W 20:33:47 10° NNW
Cosmos 2369 Rocket 2.1 20:26:36 33° SSW 20:29:12 87° WNW 20:34:54 10° NNE
H-2A R/B 3.3 20:25:15 10° NNE 20:29:26 90° WSW 20:29:32 85° SSW
Milstar 3 4.1 20:17:46 10° WSW 20:31:14 39° SSW 20:33:40 35° SSE
ATLAS CENTAUR R/B 1.9 20:36:25 45° NNE 20:36:25 45° NNE 20:39:09 10° NNE
Cosmos 1818 4.0 20:30:17 10° NW 20:35:34 50° WSW 20:36:36 44° SSW
SPOT 5 3.6 20:39:51 40° SW 20:41:14 50° W 20:46:26 10° NNW
ERBS 4.3 20:38:42 10° WNW 20:40:21 24° W 20:40:21 24° W
Okean 1-7 4.1 20:44:31 33° ENE 20:44:31 33° ENE 20:47:29 10° NNE
Cosmos 1238 Rocket 3.3 20:38:24 10° N 20:43:50 72° W 20:44:23 64° SW
Cosmos 864 Rocket 4.4 20:38:15 10° N 20:44:25 76° E 20:45:43 57° SSE
Cosmos 1959 Rocket 4.3 20:40:43 10° N 20:46:55 82° E 20:48:14 58° SSE
Cosmos 2150 Rocket 3.9 20:48:30 67° ESE 20:48:37 67° ESE 20:53:52 10° NNE
Cosmos 2242 Rocket 4.2 20:50:27 46° ENE 20:50:27 46° ENE 20:54:03 10° NNE
Meteor 2-9 Rocket 4.1 20:44:24 10° NNW 20:50:06 78° W 20:51:03 61° SSW
ERS-1 Rocket 3.9 20:49:06 35° SW 20:50:12 39° W 20:54:56 10° NNW
Cosmos 1125 Rocket 3.7 20:50:54 53° E 20:50:54 53° E 20:55:34 10° NNE
Cosmos 1862 Rocket 4.2 20:54:15 45° W 20:54:40 47° WNW 20:58:51 10° N
Meteor 1-18 Rocket 4.4 20:54:24 47° SW 20:55:56 67° WNW 21:01:29 10° N
Cosmos 1703 Rocket 4.2 20:57:18 48° NE 20:57:18 48° NE 21:00:48 10° NNE
Cosmos 1975 3.3 20:54:29 10° N 20:57:45 57° NNW 20:57:45 57° NNW
Cosmos 1607 4.3 20:54:28 17° SW 20:59:33 65° NW 21:06:02 10° NNE
ISS -0.6 20:57:56 10° NW 20:59:54 15° N 21:01:53 10° NNE
Cosmos 724 4.3 21:03:18 66° SSE 21:03:49 69° ESE 21:10:02 10° NE
Lacrosse 5 2.1 21:09:47 57° ENE 21:09:47 57° ENE 21:13:52 10° NE
RESURS DK-1 3.2 21:10:49 10° NNW 21:13:58 48° NW 21:13:58 48° NW
Cosmos 1821 Rocket 4.0 21:16:06 10° N 21:22:29 69° E 21:23:13 64° ESE
Cosmos 2366 rocket 4.5 21:18:13 10° NNW 21:24:12 51° W 21:25:28 44° SW
Cosmos 1356 Rocket 4.4 21:22:28 10° N 21:25:42 44° NNE 21:25:42 44° NNE
Meteor 1-12 Rocket 4.2 21:23:24 10° N 21:29:11 69° ENE 21:29:22 68° E
Meteor 2-4 Rocket 4.2 21:28:24 48° WSW 21:29:23 54° WNW 21:34:50 10° N
Cosmos 1048 Rocket 4.2 21:24:37 10° NNW 21:29:35 62° W 21:29:35 62° W
Cosmos 44 Rocket 3.5 21:33:30 10° NNW 21:38:15 74° NNW 21:38:15 74° NNW
Terra 3.8 21:38:38 18° W 21:38:51 18° W 21:42:07 10° NW
Cosmos 1833 4.5 21:35:57 10° NNW 21:41:31 57° WSW 21:41:31 57° WSW
COSMOS 2455 4.2 21:38:06 10° NNW 21:43:28 32° NE 21:45:34 26° E
ALOS 2 3.4 21:51:57 50° N 21:51:57 50° N 21:55:17 10° N
COBE Rocket 4.3 21:51:32 61° NE 21:51:32 61° NE 21:56:18 10° N
Cosmos 1269 Rocket 4.3 21:49:43 10° NNW 21:54:42 62° NE 21:54:42 62° NE
Meteor 1-23 Rocket 4.2 22:04:06 83° ENE 22:04:06 83° ENE 22:09:50 10° N
Nadezhda 3 Rocket 4.4 22:06:38 49° WSW 22:07:27 53° W 22:13:31 10° N
Thor Agena Rocket 3.9 22:07:36 10° NNE 22:12:11 58° ENE 22:12:11 58° ENE
ATLAS CENTAUR R/B 4.4 22:14:37 10° NW 22:14:55 10° NW 22:15:14 10° NNW
NOSS 2-1 (C) 4.4 22:09:41 10° NW 22:14:45 72° WSW 22:14:45 72° WSW
NOSS 2-1 (D) 4.5 22:16:35 10° NW 22:21:26 64° W 22:21:26 64° W
Cosmos 1605 Rocket 3.9 22:22:36 10° N 22:28:56 80° E 22:29:20 76° SE
Cosmos 2344 4.5 22:21:33 10° NW 22:31:20 69° WSW 22:35:50 45° S
Okean 2 Rocket 4.2 22:28:30 10° NNW 22:31:30 40° NNW 22:31:30 40° NNW
Cosmos 1697 Rocket 4.0 22:36:05 28° E 22:36:05 28° E 22:40:06 10° NE
Cosmos 1400 Rocket 4.3 22:31:25 10° N 22:33:54 35° N 22:33:54 35° N
Cosmos 1726 4.3 22:32:07 10° N 22:33:55 23° NNE 22:33:55 23° NNE
ISS -0.9 22:35:01 10° NW 22:36:27 17° NNW 22:36:27 17° NNW
Lacrosse 4 Rocket 3.5 22:46:24 21° ENE 22:46:24 21° ENE 22:48:25 10° NE
Meteor 1-22 Rocket 4.3 22:42:56 10° NNW 22:49:01 76° W 22:49:05 76° WSW
Cosmos 1980 Rocket 4.0 22:50:30 20° E 22:50:30 20° E 22:54:17 10° NE
Lacrosse 5 3.8 22:48:53 14° WNW 22:52:14 26° NNW 22:56:30 10° NNE
Meteor 2-20 4.3 22:52:57 83° SSW 22:53:13 89° WNW 22:59:24 10° N
PSLV R/B 4.5 22:49:00 10° NNE 22:52:02 46° N 22:52:02 46° N
Cosmos 1656 3.6 23:00:02 81° N 23:00:02 81° N 23:05:19 10° NNE
Timation 2 Rocket 4.1 22:55:58 10° NNW 23:01:56 64° ENE 23:02:58 55° ESE
Cosmos 614 Rocket 4.4 22:59:56 10° N 23:04:58 54° ENE 23:05:06 54° ENE
SeaSat 1 2.7 23:01:19 10° NNE 23:05:37 64° ENE 23:05:37 64° ENE
Cosmos 2227 Rocket 2.4 23:01:11 10° NNW 23:06:49 64° ENE 23:07:26 59° E
Cosmos 2297 Rocket 2.1 23:02:56 10° NNW 23:08:39 86° ENE 23:08:40 86° ENE
Meteor 2-10 4.3 23:05:10 10° NNW 23:09:41 58° WNW 23:09:41 58° WNW
Cosmos 2100 Rocket 4.1 23:06:49 10° N 23:13:08 70° E 23:14:11 59° SE
Okean 1 Rocket 4.2 23:16:37 10° NNW 23:19:30 36° NW 23:19:30 36° NW
Cosmos 1802 Rocket 4.3 23:15:28 10° N 23:21:32 59° E 23:22:50 49° SE
Cosmos 2369 4.0 23:22:04 53° ESE 23:22:10 53° ESE 23:27:45 10° NNE
Helios 1A 3.7 23:24:53 51° NNE 23:24:53 51° NNE 23:28:11 10° N
Cosmos 1000 Rocket 4.3 23:23:42 70° SSE 23:24:27 83° E 23:30:43 10° N
USA 215 3.9 23:19:10 10° ESE 23:25:29 53° NNE 23:31:47 10° NW
Cosmos 2082 4.5 23:20:20 10° NNW 23:25:51 48° ENE 23:28:04 32° ESE
COSMOS 2455 3.4 23:23:51 10° NW 23:28:41 43° W 23:28:41 43° W
Resurs 1-4 Rocket 3.0 23:26:16 10° NNE 23:31:08 37° E 23:31:39 36° ESE
Atlas Centaur 2 4.4 23:34:13 20° SE 23:34:13 20° SE 23:37:38 10° ESE
Cosmos 371 Rocket 3.8 23:36:48 49° WNW 23:36:48 49° WNW 23:41:22 10° N
Timation 1 Rocket 4.3 23:30:37 10° NNW 23:36:37 80° ENE 23:37:53 57° SE
Cosmos 1727 Rocket 4.5 23:36:38 44° W 23:37:26 46° WNW 23:43:33 10° N
CZ-2D R/B 2.7 23:35:54 10° NNE 23:41:00 44° E 23:41:40 42° ESE
Cosmos 1953 3.1 23:37:01 10° N 23:40:08 50° NNE 23:40:08 50° NNE
Meteor 2-11 Rocket 4.4 23:35:22 10° N 23:41:34 83° E 23:42:44 61° SSE
Cosmos 332 Rocket 3.9 23:43:46 68° NW 23:43:46 68° NW 23:48:26 10° NNE
Cosmos 2251 Rocket 4.0 23:38:38 10° NNW 23:42:54 46° WNW 23:42:54 46° WNW
Cosmos 1544 Rocket 4.1 23:40:16 10° N 23:44:36 51° E 23:44:39 51° E
NPP 4.3 23:47:00 10° NNE 23:52:11 46° E 23:53:13 41° SE
Cosmos 2263 Rocket 4.0 23:48:19 10° N 23:53:10 28° NE 23:58:01 10° ESE
Cosmos 1455 Rocket 3.4 23:49:36 10° NNW 23:53:16 59° NW 23:53:16 59° NW
SL-14 R/B 4.4 23:55:03 38° E 23:55:03 38° E 23:58:31 10° NNE
Cosmos 2322 Rocket 4.4 23:53:52 11° SE 23:56:23 14° E 23:59:15 10° ENE
